[[{"header":{"parameterUnit":"m.s-1","parameterCategory":1,"la1":30.2992,"la2":30.254,"lo1":-89.0895,"lo2":-89.0443,"dy":0.0025,"dx":0.0025,"nx":19,"ny":19,"refTime":"2026-03-21T09:00:00:Z","depth":0,"parameterNumber":2,"parameterNumberName":"U-component_of_WINDS"},"data":[0,0,0,4.0275,4.028,4.0494,4.0494,4.0784,4.0786,0,0,0,0,0,0,0,0,0,0,0,4.0219,4.0221,4.0275,4.028,4.0494,4.0494,4.0783,4.0786,0,0,0,0,0,0,0,0,0,0,0,4.0218,4.0221,4.0223,4.0281,4.0493,4.0495,4.0783,4.0617,0,0,0,0,0,0,0,0,0,0,4.0407,4.0361,4.022,4.0223,4.0282,4.0493,4.0495,4.0608,4.0627,4.0693,0,4.0751,0,4.0773,4.0807,4.0808,0,0,0,4.0276,4.0345,4.0396,4.0224,4.0285,4.0493,4.0396,4.0619,4.064,4.0718,4.0755,4.0766,4.0778,4.0809,4.081,4.1198,4.12,0,0,4.0264,4.0262,4.0382,4.041,4.0375,4.0389,4.0403,4.0631,4.0673,4.0756,4.0772,4.0783,4.0811,4.0813,4.1196,4.1198,0,0,0,4.0233,4.0254,4.0299,4.0399,4.0436,4.0396,4.0411,4.0663,4.0677,4.0775,4.0786,4.0812,4.0816,4.1194,4.1197,4.1292,0,0,0,4.0226,4.0236,4.0294,4.0295,4.0432,4.0551,4.0438,4.0661,4.0687,4.0785,4.0812,4.0819,4.1192,4.1195,4.1284,4.1337,0,0,0,4.0203,4.0233,4.0266,4.0294,4.0385,4.0548,4.0575,4.0667,4.0695,4.0808,4.082,4.119,4.1195,4.1278,4.1327,4.1437,0,0,0,4.0178,4.035,4.0267,4.0464,4.0384,4.0604,4.0574,4.0739,4.0847,4.0814,4.1192,4.1197,4.1276,4.132,4.143,4.1529,4.157,0,0,4.0394,4.0376,4.0491,4.0424,4.0657,4.0572,4.0821,4.0924,4.0939,4.1112,4.1121,4.1287,4.1326,4.1436,4.1803,4.1836,0,0,0,4.0559,4.0642,4.0704,4.0805,4.0887,4.0961,4.1026,4.1064,4.121,4.1026,4.1357,4.1381,4.1446,4.1493,4.1521,4.1576,4.1219,4.1218,4.1218,4.0861,4.0867,4.1059,4.1091,4.1191,4.1255,4.1337,4.14,4.138,4.1459,4.1509,4.1731,4.1786,4.1807,4.1865,4.1563,4.1564,4.1564,4.1564,4.1176,4.1294,4.1261,4.1435,4.1442,4.159,4.1659,4.164,4.1779,4.1694,4.1751,4.1656,4.1843,4.1893,4.1571,4.157,4.1569,4.1569,4.1568,4.1373,4.1431,4.1472,4.1619,4.1732,4.176,4.1894,4.1897,4.1902,4.1958,4.2012,4.201,4.2008,4.1984,4.1984,4.1985,4.1986,4.1986,4.1987,4.1561,4.1605,4.1716,4.1815,4.188,4.1966,4.2032,4.2098,4.2171,4.2162,4.2163,4.2135,4.1859,4.1789,4.1999,4.1997,4.1995,4.1994,4.1993,4.1876,4.1805,4.1976,4.2041,4.2158,4.2269,4.2271,4.2403,4.2457,4.2524,4.2484,4.228,4.2263,4.2241,4.2183,4.2482,4.2482,4.2482,4.2482,4.2042,4.2033,4.2208,4.2311,4.2413,4.2431,4.2626,4.268,4.2725,4.276,4.2717,4.2641,4.2618,4.2615,4.2585,4.253,4.2911,4.2912,4.2912,4.2235,4.2236,4.24,4.244,4.2531,4.261,4.2794,4.2916,4.2953,4.293,4.2786,4.2768,4.2645,4.2605,4.2578,4.2531,4.2432,0,0]},{"header":{"parameterUnit":"m.s-1","parameterCategory":1,"la1":30.2992,"la2":30.254,"lo1":-89.0895,"lo2":-89.0443,"dy":0.0025,"dx":0.0025,"nx":19,"ny":19,"refTime":"2026-03-21T09:00:00:Z","depth":0,"parameterNumber":3,"parameterNumberName":"V-component_of_WINDS"},"data":[0,0,0,3.5228,3.5231,3.5376,3.5377,3.5565,3.5567,0,0,0,0,0,0,0,0,0,0,0,3.5188,3.5189,3.5227,3.5231,3.5376,3.5377,3.5565,3.5567,0,0,0,0,0,0,0,0,0,0,0,3.5187,3.5189,3.5191,3.5232,3.5376,3.5377,3.5564,3.5454,0,0,0,0,0,0,0,0,0,0,3.5312,3.5279,3.5188,3.5191,3.5233,3.5376,3.5377,3.5448,3.546,3.5501,0,3.5539,0,3.5556,3.558,3.558,0,0,0,3.5229,3.5268,3.5305,3.5191,3.5234,3.5376,3.531,3.5455,3.5469,3.5517,3.5542,3.5549,3.5559,3.5581,3.5582,3.5827,3.5829,0,0,3.522,3.5215,3.5295,3.5314,3.5294,3.5305,3.5315,3.5463,3.5489,3.5542,3.5553,3.5562,3.5582,3.5584,3.5826,3.5828,0,0,0,3.5199,3.521,3.5243,3.5306,3.5332,3.531,3.532,3.5482,3.5494,3.5555,3.5564,3.5583,3.5586,3.5825,3.5827,3.5886,0,0,0,3.5194,3.5198,3.5239,3.5238,3.533,3.541,3.5336,3.5483,3.55,3.5564,3.5583,3.5588,3.5823,3.5826,3.5881,3.5915,0,0,0,3.5177,3.5195,3.5218,3.5237,3.5299,3.5407,3.5427,3.5487,3.5506,3.5581,3.5588,3.5823,3.5825,3.5877,3.5908,3.5978,0,0,0,3.5157,3.5267,3.5219,3.5345,3.5298,3.5443,3.5426,3.5534,3.5605,3.5584,3.5824,3.5827,3.5876,3.5904,3.5974,3.6037,3.6063,0,0,3.5293,3.5284,3.5359,3.5319,3.5472,3.5421,3.5582,3.5651,3.5661,3.5771,3.5777,3.5883,3.5908,3.5977,3.6208,3.6229,0,0,0,3.54,3.5454,3.5495,3.5563,3.5619,3.5669,3.5714,3.5739,3.5833,3.5717,3.5927,3.5942,3.5983,3.6013,3.6031,3.6066,3.584,3.584,3.584,3.5586,3.5595,3.5719,3.5745,3.5811,3.5856,3.5909,3.5951,3.594,3.5989,3.6022,3.6161,3.6196,3.621,3.6247,3.6055,3.6055,3.6056,3.6056,3.5787,3.5864,3.5847,3.5962,3.597,3.6065,3.6112,3.6101,3.6191,3.6137,3.6173,3.6115,3.6232,3.6265,3.606,3.606,3.6059,3.6059,3.6058,3.591,3.5949,3.5978,3.6077,3.6151,3.6173,3.626,3.6263,3.6267,3.6303,3.6338,3.6337,3.6337,3.6319,3.632,3.6321,3.6321,3.6321,3.6322,3.6027,3.6058,3.6132,3.62,3.6244,3.6301,3.6347,3.6389,3.6437,3.6433,3.6433,3.6417,3.6242,3.6198,3.6329,3.6328,3.6327,3.6326,3.6326,3.6228,3.6183,3.6297,3.6341,3.6421,3.6495,3.6498,3.6584,3.6619,3.6662,3.6638,3.6507,3.6497,3.6483,3.6447,3.6635,3.6635,3.6635,3.6636,3.6333,3.6328,3.6446,3.6516,3.6584,3.6598,3.6725,3.6761,3.6791,3.6813,3.6786,3.6738,3.6723,3.6722,3.6703,3.6669,3.691,3.691,3.691,3.6458,3.646,3.6568,3.6598,3.666,3.6714,3.6833,3.6913,3.6936,3.6921,3.683,3.6819,3.6741,3.6715,3.6699,3.667,3.6608,0,0]}]]